Simultaneous Nadir Overpasses (SNOs) Predictions

Prediction of SNOs between GOES-16 and TERRA Satellite Orbit:

Table of predicted SNOs for the next 14.0 days since TLE Epoch: 3/27/2021
Index Date Time (GOES-16) GOES-16 Lat,Lon TERRA Lat,Lon Distance(km) Time Diff (sec)
1 03/29/2021 03:34:27 -0.05, -75.22 -0.23, -75.99 87.80 80
2 03/31/2021 03:19:34 -0.05, -75.24 0.41, -73.04 250.48 80
3 03/31/2021 15:40:49 0.05, -75.27 0.68, -78.19 332.94 80
4 04/02/2021 15:31:16 0.04, -75.29 0.04, -75.24 5.62 80
5 04/04/2021 15:19:03 0.04, -75.31 -0.61, -72.29 344.42 80
6 04/05/2021 03:40:27 -0.04, -75.30 -0.47, -77.48 247.34 80
7 04/07/2021 03:25:33 -0.03, -75.33 0.12, -74.51 92.49 80
8 04/07/2021 15:46:49 0.03, -75.36 0.92, -79.68 490.95 80
9 04/09/2021 03:13:20 -0.03, -75.37 0.78, -71.56 433.30 80
10 04/09/2021 15:34:35 0.03, -75.40 0.32, -76.72 149.80 80
